Hlavní strana
METAR-TAF:

METAR-TAF

Letiště :

Bogue_Field/MCALF

Swansboro, Severní Karolína, Spojené státy americké

zeměpisná šířka: 34-41-34N, zeměpisná délka: 077-01-46W, výška: 6 m

Aktuální stav počasí

Zpráva byla vytvořena před 26 minutami, v 08:57 UTC
Bezvětří
Teplota 26°C
Vlhkost vzduchu 89%
Tlak 1018 hPa
Viditelnost: 16.1 km
Polojasno ve výšce 1700 ft

METAR: KNJM 070857Z AUTO 00000KT 10SM SCT017 26/24 A3006 RMK AO2 SLP182 60000 T02560239 58004 $

Čas: 05:23 (09:23 UTC)


TAF: chybějící

Stav a předpovědi počasí z více než 4 000 letišť (zprávy METAR a TAF).

Červené a žluté tečky na mapě představují dostupné meteorologické stanice.

Když kurzor umístíte na tečku, zobrazí se název stanice.

Pak kliknutím zobrazíte stav a předpověď počasí.

Chcete-li změnit mapu, kliknutím na zelené tlačítko se znaménkem +mapu přiblížíte, kliknutím na zelené tlačítko se znaménkem – mapu oddálíte a kliknutím na zelené šipky přejdete na sousední mapy.


METAR-TAF: